When you browse on this site, cookies collect data to enhance your experience and personalize the content and advertising you see.
Visit our Privacy Policy to learn more. By continuing to use the site, you agree to this use of cookies and data.
  • In Latvia
  • List of Countries
  • For 7 days
  • Water Temperature
  • Weather Map
  • Weather Widgets
  • user-avatar
    Login

    Hourly Weather Kitzbuhel

    Today, 25 August, Sunday

    Time Temperature Precipitation Wind Pressure Humidity
    00:00 +15°C° 0 mm 1 mps 680 mmHg 88%
    01:00 +15°C° 0 mm 2 mps 680 mmHg 88%
    02:00 +14°C° 0 mm 1 mps 680 mmHg 87%
    03:00 +14°C° 0 mm 1 mps 680 mmHg 87%
    04:00 +14°C° 0 mm 1 mps 680 mmHg 86%
    05:00 +15°C° 0 mm 1 mps 680 mmHg 84%
    06:00 +16°C° 0 mm 1 mps 681 mmHg 83%
    07:00 +18°C° 0 mm 1 mps 681 mmHg 80%
    08:00 +20°C° 0.1 mm 1 mps 681 mmHg 74%
    09:00 +22°C° 0.1 mm 1 mps 682 mmHg 68%
    10:00 +24°C° 0.1 mm 1 mps 682 mmHg 62%
    11:00 +24°C° 0.4 mm 1 mps 682 mmHg 61%
    12:00 +25°C° 0.4 mm 1 mps 682 mmHg 61%
    13:00 +25°C° 0.4 mm 1 mps 682 mmHg 61%
    14:00 +25°C° 1.1 mm 1 mps 681 mmHg 67%
    15:00 +24°C° 1.1 mm 1 mps 681 mmHg 74%
    16:00 +23°C° 1.1 mm 1 mps 681 mmHg 81%
    17:00 +22°C° 1.4 mm 1 mps 681 mmHg 85%
    18:00 +20°C° 1.4 mm 1 mps 681 mmHg 88%
    19:00 +19°C° 1.4 mm 1 mps 680 mmHg 92%
    20:00 +18°C° 0.2 mm 1 mps 681 mmHg 92%
    21:00 +18°C° 0.2 mm 1 mps 681 mmHg 92%
    22:00 +18°C° 0.2 mm 1 mps 681 mmHg 92%
    23:00 +16°C° 0 mm 1 mps 681 mmHg 92%

    Tomorrow, 26 August, Monday

    Time Temperature Precipitation Wind Pressure Humidity
    00:00 +16°C° 0 mm 1 mps 681 mmHg 92%
    01:00 +15°C° 0 mm 1 mps 681 mmHg 92%
    02:00 +15°C° 0 mm 1 mps 680 mmHg 91%
    03:00 +15°C° 0 mm 1 mps 680 mmHg 91%
    04:00 +15°C° 0 mm 1 mps 680 mmHg 91%
    05:00 +15°C° 0 mm 1 mps 680 mmHg 90%
    06:00 +16°C° 0 mm 1 mps 680 mmHg 88%
    07:00 +18°C° 0 mm 1 mps 681 mmHg 87%
    08:00 +20°C° 0.1 mm 1 mps 681 mmHg 79%
    09:00 +22°C° 0.1 mm 1 mps 681 mmHg 71%
    10:00 +25°C° 0.1 mm 1 mps 682 mmHg 63%
    11:00 +25°C° 0.5 mm 1 mps 682 mmHg 62%
    12:00 +25°C° 0.5 mm 1 mps 681 mmHg 62%
    13:00 +26°C° 0.5 mm 1 mps 681 mmHg 61%
    14:00 +25°C° 1.2 mm 1 mps 681 mmHg 66%
    15:00 +25°C° 1.2 mm 1 mps 681 mmHg 71%
    16:00 +24°C° 1.2 mm 1 mps 680 mmHg 77%
    17:00 +22°C° 1.4 mm 1 mps 680 mmHg 81%
    18:00 +21°C° 1.4 mm 1 mps 680 mmHg 86%
    19:00 +19°C° 1.4 mm 1 mps 679 mmHg 91%
    20:00 +19°C° 0.1 mm 1 mps 679 mmHg 91%
    21:00 +18°C° 0.1 mm 1 mps 680 mmHg 90%
    22:00 +18°C° 0.1 mm 1 mps 680 mmHg 90%
    23:00 +16°C° 0 mm 1 mps 680 mmHg 90%

    Day after tomorrow, 27 August, Tuesday

    Time Temperature Precipitation Wind Pressure Humidity
    00:00 +16°C° 0 mm 1 mps 680 mmHg 90%
    01:00 +15°C° 0 mm 1 mps 679 mmHg 89%
    02:00 +15°C° 0 mm 1 mps 679 mmHg 89%
    03:00 +15°C° 0 mm 1 mps 679 mmHg 89%
    04:00 +15°C° 0 mm 1 mps 679 mmHg 88%
    05:00 +16°C° 0 mm 1 mps 679 mmHg 87%
    06:00 +18°C° 0 mm 1 mps 680 mmHg 85%
    07:00 +19°C° 0 mm 1 mps 680 mmHg 84%
    08:00 +21°C° 0 mm 1 mps 681 mmHg 74%
    09:00 +24°C° 0 mm 1 mps 681 mmHg 63%
    10:00 +25°C° 0 mm 0 mps 682 mmHg 53%
    11:00 +27°C° 0.1 mm 1 mps 682 mmHg 49%
    12:00 +28°C° 0.1 mm 1 mps 682 mmHg 46%
    13:00 +28°C° 0.1 mm 1 mps 682 mmHg 42%
    14:00 +28°C° 0.2 mm 1 mps 681 mmHg 46%
    15:00 +27°C° 0.2 mm 1 mps 681 mmHg 49%
    16:00 +27°C° 0.2 mm 2 mps 681 mmHg 53%
    17:00 +24°C° 0.2 mm 1 mps 680 mmHg 64%
    18:00 +22°C° 0.2 mm 1 mps 680 mmHg 76%
    19:00 +20°C° 0.2 mm 1 mps 679 mmHg 87%
    20:00 +19°C° 0 mm 1 mps 680 mmHg 88%
    21:00 +19°C° 0 mm 1 mps 680 mmHg 88%
    22:00 +17°C° 0 mm 2 mps 680 mmHg 88%
    23:00 +17°C° 0 mm 2 mps 680 mmHg 88%

    28 August, Wednesday

    Time Temperature Precipitation Wind Pressure Humidity
    00:00 +16°C° 0 mm 2 mps 680 mmHg 87%
    01:00 +16°C° 0 mm 2 mps 680 mmHg 87%
    02:00 +16°C° 0 mm 2 mps 680 mmHg 87%
    03:00 +16°C° 0 mm 2 mps 679 mmHg 86%
    04:00 +15°C° 0 mm 1 mps 679 mmHg 85%
    05:00 +16°C° 0 mm 1 mps 680 mmHg 83%
    06:00 +18°C° 0 mm 1 mps 680 mmHg 81%
    07:00 +19°C° 0 mm 1 mps 680 mmHg 79%
    08:00 +22°C° 0 mm 1 mps 681 mmHg 71%
    09:00 +24°C° 0 mm 1 mps 681 mmHg 63%
    10:00 +24°C° 0 mm 0 mps 681 mmHg 54%
    11:00 +27°C° 0.1 mm 1 mps 681 mmHg 53%
    12:00 +27°C° 0.1 mm 1 mps 681 mmHg 52%
    13:00 +28°C° 0.1 mm 1 mps 680 mmHg 50%
    14:00 +27°C° 0.6 mm 1 mps 680 mmHg 59%
    15:00 +26°C° 0.6 mm 1 mps 680 mmHg 67%
    16:00 +25°C° 0.6 mm 1 mps 679 mmHg 75%
    17:00 +23°C° 0.6 mm 1 mps 679 mmHg 80%
    18:00 +21°C° 0.6 mm 1 mps 679 mmHg 84%
    19:00 +18°C° 0.6 mm 0 mps 678 mmHg 89%
    20:00 +19°C° 0.3 mm 1 mps 678 mmHg 89%
    21:00 +18°C° 0.3 mm 1 mps 679 mmHg 89%
    22:00 +18°C° 0.3 mm 1 mps 679 mmHg 90%
    23:00 +16°C° 0.1 mm 1 mps 679 mmHg 90%

    29 August, Thursday

    Time Temperature Precipitation Wind Pressure Humidity
    00:00 +16°C° 0.1 mm 1 mps 679 mmHg 90%
    01:00 +16°C° 0.1 mm 1 mps 679 mmHg 91%
    02:00 +15°C° 0.1 mm 1 mps 679 mmHg 91%
    03:00 +15°C° 0.1 mm 1 mps 679 mmHg 91%
    04:00 +15°C° 0.1 mm 1 mps 679 mmHg 91%
    05:00 +16°C° 0.2 mm 1 mps 679 mmHg 91%
    06:00 +18°C° 0.2 mm 1 mps 679 mmHg 90%
    07:00 +16°C° 0.2 mm 0 mps 679 mmHg 90%
    08:00 +20°C° 0.5 mm 1 mps 680 mmHg 87%
    09:00 +21°C° 0.5 mm 1 mps 680 mmHg 85%
    10:00 +22°C° 0.5 mm 1 mps 680 mmHg 83%
    11:00 +22°C° 1 mm 1 mps 680 mmHg 82%
    12:00 +22°C° 1 mm 1 mps 680 mmHg 81%
    13:00 +23°C° 1 mm 1 mps 680 mmHg 81%
    14:00 +22°C° 0.7 mm 1 mps 680 mmHg 82%
    15:00 +22°C° 0.7 mm 1 mps 680 mmHg 83%
    16:00 +22°C° 0.7 mm 1 mps 680 mmHg 84%
    17:00 +21°C° 0.4 mm 1 mps 680 mmHg 86%
    18:00 +17°C° 0.4 mm 0 mps 680 mmHg 88%
    19:00 +16°C° 0.4 mm 0 mps 680 mmHg 90%
    20:00 +16°C° 0.1 mm 0 mps 680 mmHg 90%
    21:00 +16°C° 0.1 mm 1 mps 681 mmHg 90%
    22:00 +15°C° 0.1 mm 1 mps 681 mmHg 91%
    23:00 +15°C° 0 mm 1 mps 681 mmHg 91%

    30 August, Friday

    Time Temperature Precipitation Wind Pressure Humidity
    00:00 +15°C° 0 mm 1 mps 681 mmHg 91%
    01:00 +14°C° 0 mm 1 mps 681 mmHg 91%
    02:00 +14°C° 0 mm 1 mps 681 mmHg 91%
    03:00 +14°C° 0 mm 1 mps 681 mmHg 92%
    04:00 +14°C° 0 mm 1 mps 681 mmHg 92%
    05:00 +15°C° 0 mm 1 mps 681 mmHg 91%
    06:00 +16°C° 0 mm 1 mps 681 mmHg 89%
    07:00 +18°C° 0 mm 1 mps 682 mmHg 88%
    08:00 +20°C° 0 mm 1 mps 682 mmHg 80%
    09:00 +22°C° 0 mm 1 mps 683 mmHg 71%
    10:00 +24°C° 0 mm 1 mps 683 mmHg 63%
    11:00 +25°C° 0.3 mm 1 mps 683 mmHg 61%
    12:00 +25°C° 0.3 mm 1 mps 683 mmHg 60%
    13:00 +26°C° 0.3 mm 1 mps 683 mmHg 59%
    14:00 +25°C° 1 mm 1 mps 682 mmHg 65%
    15:00 +24°C° 1 mm 1 mps 682 mmHg 70%
    16:00 +24°C° 1 mm 1 mps 682 mmHg 76%
    17:00 +22°C° 1 mm 1 mps 682 mmHg 81%
    18:00 +21°C° 1 mm 1 mps 681 mmHg 86%
    19:00 +19°C° 1 mm 1 mps 681 mmHg 91%
    20:00 +19°C° 0.1 mm 1 mps 681 mmHg 91%
    21:00 +18°C° 0.1 mm 1 mps 681 mmHg 91%
    22:00 +18°C° 0.1 mm 1 mps 681 mmHg 91%
    23:00 +18°C° 0 mm 1 mps 681 mmHg 91%
    Show more